Notices

What's New in latest Release from April 7th, 2021:

- Updated Glossary, including Speed of Maximum Gust, and Total Hourly Precipitation

- Updated national and regional climate services offices contacts and prices information

- Addition of station inventory lists for 1981-2010, 1971-2000, and 1961-1990 Normals.

If you haven't already, please take our survey and provide feedback about our website: https://eccc.sondage-survey.ca/f/LanguageSelection.aspx?s=442ca660-fcf1-47c0-95a9-59707d6fd709

Hourly Data Report for July 01, 2003

TORONTO CITY
ONTARIO

43°40'00.000" N
79°24'00.000" W
112.50 m
6158355
71508
XTO

Download Data

Hourly Data (July 2003)
Hourly Data Report for July 1, 2003
TIME
LST
Temp Definition
°C
Dew Point Definition
°C
Rel Hum Definition
%
Precip. Amount Definition
mm

Wind Dir Definition
10's deg

Wind Spd Definition
km/h
Visibility Definition
km
Stn Press Definition
kPa
Hmdx Definition


Wind Chill Definition


Weather Definition


00:00 19.5 14.2 71   LegendMM LegendMM LegendMM 100.68     LegendNANA
01:00 18.5 14.3 77   LegendMM LegendMM LegendMM 100.64     LegendNANA
02:00
03:00
04:00 17.3 14.4 83   LegendMM LegendMM LegendMM 100.59     LegendNANA
05:00 17.1 14.7 86   LegendMM LegendMM LegendMM 100.60     LegendNANA
06:00 17.9 14.9 83   LegendMM LegendMM LegendMM 100.62     LegendNANA
07:00 19.1 14.8 76   LegendMM LegendMM LegendMM 100.65     LegendNANA
08:00 21.1 15.2 69   LegendMM LegendMM LegendMM 100.64 25   LegendNANA
09:00 21.7 14.5 64   LegendMM LegendMM LegendMM 100.62 25   LegendNANA
10:00 24.1 15.3 58   LegendMM LegendMM LegendMM 100.58 28   LegendNANA
11:00 26.1 16.2 54   LegendMM LegendMM LegendMM 100.55 31   LegendNANA
12:00 25.4 15.4 54   LegendMM LegendMM LegendMM 100.50 30   LegendNANA
13:00 25.3 15.4 54   LegendMM LegendMM LegendMM 100.43 30   LegendNANA
14:00 25.8 14.8 51   LegendMM LegendMM LegendMM 100.38 30   LegendNANA
15:00
16:00 27.1 15.3 48   LegendMM LegendMM LegendMM 100.25 31   LegendNANA
17:00 25.9 15.5 53   LegendMM LegendMM LegendMM 100.24 30   LegendNANA
18:00 24.6 14.8 54   LegendMM LegendMM LegendMM 100.24 28   LegendNANA
19:00 24.1 14.7 56   LegendMM LegendMM LegendMM 100.20 28   LegendNANA
20:00 23.2 14.5 58   LegendMM LegendMM LegendMM 100.18 27   LegendNANA
21:00 23.1 14.1 57   LegendMM LegendMM LegendMM 100.17 27   LegendNANA
22:00 22.1 14.0 60   LegendMM LegendMM LegendMM 100.14 25   LegendNANA
23:00 22.0 14.4 62   LegendMM LegendMM LegendMM 100.16 26   LegendNANA

Notes on Data Quality.

Legend

  • E = Estimated
  • M = Missing
  • NA = Not Available*
  • [empty] = Indicates an unobserved value
Date modified: